Weather History for Edinburg, TX

Change the Weather History Date:

Saturday, November 26, 2011

  Actual Average (KMFE) Record (KMFE)
Temperature  
Mean Temperature 78 °F 66 °F  
Max Temperature 88 °F 77 °F 92 °F (1965)
Min Temperature 67 °F 56 °F 35 °F (1911)
Degree Days  
Heating Degree Days 0 3  
Month to date heating degree days 43  
Since 1 July heating degree days 48  
Cooling Degree Days 12 4  
Month to date cooling degree days 171  
Year to date cooling degree days 4353  
Growing Degree Days 28 (Base 50)    
Moisture  
Dew Point 59 °F    
Average Humidity 61    
Maximum Humidity 92    
Minimum Humidity 21    
Precipitation  
Precipitation 0.00 in 0.03 in 0.62 in (1980)
Month to date precipitation 0.79  
Year to date precipitation 20.91  
Sea Level Pressure  
Sea Level Pressure 29.93 in    
Wind  
Wind Speed 7 mph (NW)    
Max Wind Speed 25 mph    
Max Gust Speed 34 mph    
Visibility 9 miles    
Events      
T = Trace of Precipitation, MM = Missing Value Source: NWS Daily Summary

Daily Weather History Graph

Daily Weather History Graph

Search for Another Location

Airport:

Trip Planner

Search our weather history database for the weather conditions in past years. The results will help you decide how hot, cold, wet, or windy it might be!

Date:

Astronomy

Nov. 26, 2011 Rise Set
Actual Time 6:59 AM CST 5:39 PM CST
Civil Twilight 6:34 AM CST 6:04 PM CST
Nautical Twilight 6:06 AM CST 6:33 PM CST
Astronomical Twilight 5:38 AM CST 7:01 PM CST
Moon 8:26 AM CST (11/26) 7:17 PM CST (11/26)
Length of Visible Light 11h 30m
Length of Day
10h 40m
Waxing Crescent, 3% of the Moon is Illuminated
Nov 26
Waxing Crescent
Dec 2
First Quarter
Dec 10
Full
Dec 17
Last Quarter
Dec 24
New

Hourly Weather History & Observations

Time (CST) Temp. Heat Index Dew Point Humidity Pressure Visibility Wind Dir Wind Speed Gust Speed Precip Events Conditions
12:15 AM 73.6 °F - 67.3 °F 81% 29.87 in 10.0 mi West 4.6 mph - N/A   Scattered Clouds
12:35 AM 73.8 °F - 67.3 °F 80% 29.89 in 10.0 mi NW 4.6 mph - N/A   Overcast
1:15 AM 74.1 °F - 67.5 °F 80% 29.90 in 10.0 mi WNW 4.6 mph - N/A   Overcast
1:35 AM 75.0 °F - 68.0 °F 79% 29.90 in 10.0 mi Calm Calm - N/A   Overcast
1:55 AM 74.7 °F - 67.8 °F 79% 29.89 in 10.0 mi Calm Calm - N/A   Mostly Cloudy
2:15 AM 73.4 °F - 67.5 °F 82% 29.89 in 10.0 mi Calm Calm - N/A   Scattered Clouds
2:35 AM 72.7 °F - 67.3 °F 83% 29.89 in 10.0 mi Calm Calm - N/A   Mostly Cloudy
2:55 AM 72.3 °F - 66.9 °F 83% 29.88 in 10.0 mi Calm Calm - N/A   Mostly Cloudy
3:15 AM 71.8 °F - 66.6 °F 84% 29.88 in 10.0 mi Calm Calm - N/A   Mostly Cloudy
3:35 AM 71.1 °F - 66.4 °F 85% 29.87 in 10.0 mi Calm Calm - N/A   Scattered Clouds
3:55 AM 70.2 °F - 66.0 °F 87% 29.88 in 10.0 mi Calm Calm - N/A   Scattered Clouds
4:15 AM 69.3 °F - 65.3 °F 87% 29.87 in 7.0 mi ESE 3.5 mph - N/A   Clear
4:35 AM 67.5 °F - 64.0 °F 89% 29.87 in 7.0 mi ESE 4.6 mph - N/A   Clear
4:55 AM 67.6 °F - 64.8 °F 90% 29.86 in 7.0 mi SE 4.6 mph - N/A   Clear
5:15 AM 68.4 °F - 65.3 °F 90% 29.86 in 5.0 mi SE 6.9 mph - N/A   Clear
5:35 AM 68.2 °F - 65.5 °F 91% 29.87 in 5.0 mi SE 4.6 mph - N/A   Clear
5:55 AM 68.2 °F - 65.5 °F 91% 29.87 in 5.0 mi SE 4.6 mph - N/A   Clear
6:15 AM 68.2 °F - 65.7 °F 92% 29.87 in 4.0 mi SE 5.8 mph - N/A   Clear
6:55 AM 68.4 °F - 65.8 °F 92% 29.89 in 2.5 mi Calm Calm - N/A   Clear
7:35 AM 69.3 °F - 66.9 °F 92% 29.87 in 4.0 mi SSE 16.1 mph - N/A   Clear
7:55 AM 70.9 °F - 68.5 °F 92% 29.89 in 7.0 mi SSE 9.2 mph - N/A   Clear
8:15 AM 72.1 °F - 69.1 °F 90% 29.89 in 10.0 mi SSE 9.2 mph - N/A   Clear
8:35 AM 72.9 °F - 68.9 °F 87% 29.92 in 10.0 mi SSW 5.8 mph - N/A   Clear
8:55 AM 75.2 °F - 67.5 °F 77% 29.94 in 10.0 mi West 5.8 mph - N/A   Clear
9:15 AM 76.8 °F - 66.4 °F 70% 29.94 in 10.0 mi WSW 9.2 mph - N/A   Clear
9:35 AM 77.0 °F - 66.0 °F 69% 29.95 in 10.0 mi West 6.9 mph - N/A   Clear
10:15 AM 79.2 °F - 64.6 °F 61% 29.96 in 10.0 mi West 9.2 mph - N/A   Mostly Cloudy
10:35 AM 79.5 °F - 64.0 °F 59% 29.96 in 10.0 mi West 9.2 mph - N/A   Overcast
10:55 AM 80.2 °F 81.9 °F 64.2 °F 58% 29.95 in 10.0 mi WNW 5.8 mph - N/A   Mostly Cloudy
11:15 AM 81.9 °F 83.1 °F 63.1 °F 53% 29.95 in 10.0 mi West 5.8 mph - N/A   Clear
11:35 AM 82.9 °F 83.8 °F 62.4 °F 50% 29.94 in 10.0 mi NW 9.2 mph - N/A   Clear
11:55 AM 83.7 °F 84.3 °F 62.1 °F 48% 29.94 in 10.0 mi West 10.4 mph - N/A   Scattered Clouds
12:15 PM 84.2 °F 84.8 °F 61.7 °F 47% 29.92 in 10.0 mi WNW 5.8 mph - N/A   Scattered Clouds
12:35 PM 85.8 °F 85.9 °F 60.6 °F 43% 29.91 in 10.0 mi NW 4.6 mph - N/A   Scattered Clouds
12:55 PM 86.5 °F 86.3 °F 60.4 °F 41% 29.90 in 10.0 mi North 5.8 mph - N/A   Scattered Clouds
1:35 PM 87.4 °F 87.2 °F 60.3 °F 40% 29.89 in 10.0 mi NNW 11.5 mph 17.3 mph N/A   Scattered Clouds
1:55 PM 88.2 °F 87.3 °F 58.8 °F 37% 29.89 in 10.0 mi NNW 13.8 mph - N/A   Mostly Cloudy
2:15 PM 87.6 °F 86.7 °F 58.5 °F 37% 29.88 in 10.0 mi North 17.3 mph - N/A   Mostly Cloudy
2:35 PM 86.5 °F 84.7 °F 54.0 °F 33% 29.89 in 10.0 mi NNW 23.0 mph 29.9 mph N/A   Overcast
2:55 PM 84.9 °F - 51.3 °F 31% 29.90 in 10.0 mi North 24.2 mph 31.1 mph N/A   Mostly Cloudy
3:15 PM 84.9 °F - 48.9 °F 29% 29.91 in 10.0 mi North 23.0 mph 31.1 mph N/A   Scattered Clouds
3:55 PM 84.2 °F - 43.9 °F 24% 29.93 in 10.0 mi North 19.6 mph 29.9 mph N/A   Scattered Clouds
4:35 PM 83.1 °F - 43.3 °F 25% 29.95 in 10.0 mi North 23.0 mph 28.8 mph N/A   Clear
4:55 PM 82.4 °F - 41.2 °F 23% 29.96 in 10.0 mi North 25.3 mph 29.9 mph N/A   Clear
5:35 PM 80.8 °F - 37.0 °F 21% 29.98 in 10.0 mi North 19.6 mph 26.5 mph N/A   Scattered Clouds
5:55 PM 79.9 °F - 37.4 °F 22% 29.99 in 10.0 mi North 13.8 mph - N/A   Scattered Clouds
6:15 PM 79.3 °F - 36.7 °F 22% 30.01 in 10.0 mi North 19.6 mph 26.5 mph N/A   Scattered Clouds
6:35 PM 79.2 °F - 37.0 °F 22% 30.02 in 10.0 mi North 18.4 mph 25.3 mph N/A   Scattered Clouds
7:15 PM 77.4 °F - 43.0 °F 29% 30.06 in 10.0 mi North 20.7 mph 29.9 mph N/A   Overcast
7:35 PM 76.3 °F - 44.6 °F 32% 30.08 in 10.0 mi North 20.7 mph 32.2 mph N/A   Mostly Cloudy
8:15 PM 74.5 °F - 45.1 °F 35% 30.11 in 10.0 mi North 25.3 mph 34.5 mph N/A   Mostly Cloudy
8:35 PM 73.8 °F - 44.1 °F 34% 30.14 in 10.0 mi North 18.4 mph 31.1 mph N/A   Overcast
8:55 PM 73.2 °F - 43.2 °F 34% 30.15 in 10.0 mi North 23.0 mph 29.9 mph N/A   Overcast
9:15 PM 72.3 °F - 41.9 °F 33% 30.17 in 10.0 mi North 25.3 mph 36.8 mph N/A   Overcast
10:15 PM 67.3 °F - 37.0 °F 33% 30.23 in 5.0 mi North 31.1 mph 42.6 mph N/A   Haze
10:35 PM 66.0 °F - 35.4 °F 32% 30.25 in 10.0 mi North 24.2 mph 33.4 mph N/A   Overcast
10:55 PM 65.1 °F - 34.9 °F 33% 30.25 in 10.0 mi North 29.9 mph 39.1 mph N/A   Overcast
11:35 PM 64.0 °F - 34.9 °F 34% 30.28 in 10.0 mi North 25.3 mph 29.9 mph N/A   Mostly Cloudy
11:55 PM 63.3 °F - 34.7 °F 34% 30.28 in 10.0 mi North 24.2 mph 32.2 mph N/A   Overcast